Weather History for Anoka County, MN

Change the Weather History Date:

Tuesday, February 12, 2013

  Actual Average Record
Temperature  
Mean Temperature 25 °F -  
Max Temperature 35 °F 26 °F 51 °F (2005)
Min Temperature 15 °F 11 °F -5 °F (2003)
Degree Days  
Heating Degree Days 40    
Moisture  
Dew Point 18 °F    
Average Humidity 81    
Maximum Humidity 93    
Minimum Humidity 56    
Precipitation  
Precipitation 0.00 in - - ()
Sea Level Pressure  
Sea Level Pressure 29.91 in    
Wind  
Wind Speed 6 mph (SW)    
Max Wind Speed 15 mph    
Max Gust Speed 20 mph    
Visibility 10 miles    
Events Snow    
Averages and records for this station are not official NWS values.
T = Trace of Precipitation, MM = Missing Value Source: NWS Daily Summary

Daily Weather History Graph

Daily Weather History Graph

Search for Another Location

Airport:

Trip Planner

Search our weather history database for the weather conditions in past years. The results will help you decide how hot, cold, wet, or windy it might be!

Date:

Astronomy

Feb. 12, 2013 Rise Set
Actual Time 7:18 AM CST 5:36 PM CST
Civil Twilight 6:47 AM CST 6:07 PM CST
Nautical Twilight 6:13 AM CST 6:41 PM CST
Astronomical Twilight 5:38 AM CST 7:15 PM CST
Moon 8:05 AM CST (2/12) 8:49 PM CST (2/12)
Length of Visible Light 11h 19m
Length of Day
10h 18m
Waxing Crescent, 7% of the Moon is Illuminated
Feb 12
Waxing Crescent
Feb 17
First Quarter
Feb 25
Full
Mar 4
Last Quarter
Mar 11
New

Hourly Weather History & Observations

Time (CST) Temp. Windchill Dew Point Humidity Pressure Visibility Wind Dir Wind Speed Gust Speed Precip Events Conditions
12:14 AM 17.6 °F 10.7 °F 15.8 °F 93% 30.01 in 10.0 mi WSW 4.6 mph - N/A   Clear
12:33 AM 17.6 °F 10.7 °F 14.0 °F 86% 30.01 in 10.0 mi WSW 4.6 mph - N/A   Clear
12:54 AM 17.6 °F 10.7 °F 12.2 °F 79% 30.01 in 10.0 mi WSW 4.6 mph - N/A   Clear
1:14 AM 15.8 °F 7.2 °F 12.2 °F 86% 30.01 in 10.0 mi WSW 5.8 mph - N/A   Clear
1:34 AM 15.8 °F 6.1 °F 12.2 °F 86% 30.01 in 10.0 mi WSW 6.9 mph - N/A   Clear
1:54 AM 15.8 °F 6.1 °F 12.2 °F 86% 30.01 in 10.0 mi SW 6.9 mph - N/A   Clear
2:14 AM 15.8 °F 7.2 °F 12.2 °F 86% 30.01 in 10.0 mi SW 5.8 mph - N/A Snow Light Snow
2:34 AM 15.8 °F 7.2 °F 12.2 °F 86% 30.01 in 10.0 mi SW 5.8 mph - N/A Snow Light Snow
2:54 AM 17.6 °F 8.2 °F 14.0 °F 86% 30.01 in 10.0 mi SW 6.9 mph - N/A Snow Light Snow
3:13 AM 17.6 °F 10.7 °F 15.8 °F 93% 30.00 in 10.0 mi SW 4.6 mph - N/A Snow Light Snow
3:34 AM 17.6 °F 9.3 °F 15.8 °F 93% 30.00 in 10.0 mi SW 5.8 mph - N/A Snow Light Snow
3:54 AM 19.4 °F 12.8 °F 15.8 °F 86% 30.00 in 10.0 mi SSW 4.6 mph - N/A Snow Light Snow
4:13 AM 19.4 °F 10.4 °F 15.8 °F 86% 29.99 in 10.0 mi SW 6.9 mph - N/A Snow Light Snow
4:34 AM 19.4 °F 11.5 °F 15.8 °F 86% 29.99 in 10.0 mi SSW 5.8 mph - N/A   Overcast
4:54 AM 19.4 °F 12.8 °F 15.8 °F 86% 29.98 in 10.0 mi SSW 4.6 mph - N/A   Overcast
5:13 AM 19.4 °F 12.8 °F 15.8 °F 86% 29.98 in 10.0 mi South 4.6 mph - N/A   Overcast
5:34 AM 19.4 °F 11.5 °F 15.8 °F 86% 29.97 in 10.0 mi South 5.8 mph - N/A   Overcast
5:54 AM 21.2 °F 13.6 °F 15.8 °F 80% 29.97 in 10.0 mi SSW 5.8 mph - N/A   Overcast
6:14 AM 21.2 °F 14.9 °F 17.6 °F 86% 29.97 in 10.0 mi SSW 4.6 mph - N/A   Overcast
6:34 AM 21.2 °F 10.1 °F 15.8 °F 80% 29.97 in 10.0 mi South 10.4 mph - N/A   Mostly Cloudy
6:45 AM 21.2 °F 11.7 °F 19.4 °F 93% 29.97 in 10.0 mi South 8.1 mph - N/A   Overcast
6:54 AM 19.4 °F 10.4 °F 15.8 °F 86% 29.96 in 10.0 mi South 6.9 mph - N/A   Scattered Clouds
7:55 AM 15.8 °F 6.1 °F 14.0 °F 93% 29.95 in 10.0 mi SSE 6.9 mph - N/A   Partly Cloudy
8:50 AM 19.4 °F 8.6 °F 15.8 °F 86% 29.93 in 10.0 mi South 9.2 mph - N/A   Partly Cloudy
9:55 AM 26.6 °F 14.7 °F 19.4 °F 74% 29.91 in 10.0 mi South 15.0 mph 19.6 mph N/A   Mostly Cloudy
11:50 AM 30.2 °F 22.6 °F 21.2 °F 69% 29.88 in 10.0 mi SSW 8.1 mph 12.7 mph N/A   Scattered Clouds
12:50 PM 33.8 °F 27.0 °F 21.2 °F 60% 29.85 in 10.0 mi SSW 8.1 mph 12.7 mph N/A   Clear
1:45 PM 33.8 °F 26.4 °F 21.2 °F 60% 29.83 in 10.0 mi SW 9.2 mph - N/A   Clear
2:45 PM 35.6 °F 28.6 °F 21.2 °F 56% 29.82 in 10.0 mi SW 9.2 mph - N/A   Clear
3:55 PM 33.8 °F 27.0 °F 23.0 °F 65% 29.83 in 10.0 mi WSW 8.1 mph - N/A   Clear
4:55 PM 33.8 °F 25.8 °F 23.0 °F 65% 29.83 in 10.0 mi WSW 10.4 mph - N/A   Clear
5:50 PM 30.2 °F 24.3 °F 23.0 °F 75% 29.83 in 10.0 mi WSW 5.8 mph - N/A   Clear
6:45 PM 28.4 °F 22.2 °F 21.2 °F 74% 29.83 in 10.0 mi WSW 5.8 mph - N/A   Clear
7:45 PM 28.4 °F 22.2 °F 21.2 °F 74% 29.81 in 10.0 mi SW 5.8 mph - N/A   Clear
8:45 PM 28.4 °F 22.2 °F 21.2 °F 74% 29.82 in 10.0 mi WSW 5.8 mph - N/A   Scattered Clouds
9:14 PM 26.6 °F 20.0 °F 21.2 °F 80% 29.82 in 10.0 mi WSW 5.8 mph - N/A   Clear
9:34 PM 26.6 °F 20.0 °F 21.2 °F 80% 29.81 in 10.0 mi WSW 5.8 mph - N/A   Clear
9:54 PM 26.6 °F 20.0 °F 21.2 °F 80% 29.81 in 10.0 mi WSW 5.8 mph - N/A   Clear
10:14 PM 26.6 °F 20.0 °F 21.2 °F 80% 29.80 in 10.0 mi WSW 5.8 mph - N/A   Clear
10:34 PM 24.8 °F 19.1 °F 21.2 °F 86% 29.80 in 10.0 mi West 4.6 mph - N/A   Clear
10:54 PM 24.8 °F 17.9 °F 21.2 °F 86% 29.79 in 10.0 mi WSW 5.8 mph - N/A   Scattered Clouds
11:14 PM 24.8 °F 19.1 °F 19.4 °F 80% 29.79 in 10.0 mi SW 4.6 mph - N/A   Overcast
11:34 PM 24.8 °F 20.5 °F 19.4 °F 80% 29.78 in 10.0 mi WSW 3.5 mph - N/A   Overcast
11:54 PM 24.8 °F 20.5 °F 19.4 °F 80% 29.78 in 10.0 mi SW 3.5 mph - N/A   Overcast